CAPE
20 0 0 0 0 0 0 0 0 0 0 0 0 0 0 0 40 62 99 228 196 925 1255 1052 1419 1010 508 126 25 1 0 0 16 10 3 7 5 16 15 4 0 0 0 0 0 0 0 0 0
0 0 0 0 0 0 0 0 0 0 0 0 0 0 0 0 0 136 170 195 214 821 1159 976 1605 1251 665 239 74 36 0 0 8 7 0 0 0 0 0 0 0 0 0 0 0 0 0 0 0
0 0 0 0 0 0 0 0 0 0 0 0 0 0 0 6 23 161 308 224 289 795 1098 1293 1723 1439 841 375 103 63 3 0 0 0 0 0 3 0 0 0 0 0 0 0 0 0 0 0 0
0 0 0 0 0 0 0 0 0 0 0 0 0 0 0 0 112 129 304 271 362 869 1116 1340 1768 1464 1123 552 126 59 29 0 0 0 6 7 5 7 3 0 0 0 0 0 0 1 4 1 1
0 0 0 0 0 0 0 0 0 0 0 0 0 0 0 3 109 309 415 328 439 754 1666 1411 1805 1572 1275 711 246 107 30 8 2 0 0 24 27 49 38 1 9 0 0 0 0 2 10 2 0
0 0 0 0 0 0 0 0 0 0 0 0 0 0 0 7 142 463 621 511 412 747 1167 1524 1580 1591 1404 1020 636 223 49 18 7 3 0 12 1 92 55 17 11 0 1 0 2 10 21 53 108
0 0 0 0 0 0 0 0 0 0 0 0 0 0 0 0 508 692 753 649 627 760 995 1730 1550 1379 1310 1162 1009 615 195 70 25 16 0 59 3 115 121 55 21 1 0 0 37 124 130 75 37
0 0 0 0 0 0 0 0 0 0 0 0 0 0 0 29 500 710 697 774 758 803 1024 1137 1465 1485 1079 987 987 721 476 307 91 81 114 55 14 78 173 212 71 13 14 43 77 0 0 0 0
0 8 0 0 0 0 0 0 0 0 0 0 0 0 0 0 305 663 756 879 889 928 1076 1072 1061 938 1171 1085 758 683 480 207 173 98 33 0 0 0 0 0 10 25 14 31 0 0 0 0 0
1 0 0 0 0 0 0 0 0 0 0 0 0 0 0 0 26 433 679 857 881 1036 1117 1221 1142 1062 1409 1232 857 484 181 60 5 20 10 2 0 0 0 0 6 0 3 0 0 0 0 0 0
0 0 0 0 0 0 0 0 0 0 0 0 0 0 0 0 0 51 269 423 828 976 1198 1311 1448 1399 1283 957 1106 575 362 349 172 94 75 0 0 0 0 0 0 0 0 0 0 0 0 0 0
0 0 0 0 0 0 0 0 0 0 0 0 0 0 0 0 0 0 18 137 316 845 1154 1425 1597 1697 1727 1494 1140 766 463 448 386 209 113 0 0 0 0 0 46 5 0 0 0 0 0 0 0
2 0 0 0 0 0 0 0 0 0 0 0 0 0 0 0 0 0 0 12 160 560 977 1367 1670 1727 1850 1629 1371 984 562 553 489 382 247 12 0 8 10 5 0 0 0 0 0 0 0 0 0
6 0 0 0 0 0 0 0 0 0 0 0 0 0 0 0 0 0 0 0 15 311 714 1106 1536 1808 1647 1713 1603 1224 803 656 564 543 349 25 53 103 0 0 0 0 0 0 0 0 0 0 0
0 0 0 0 0 0 0 0 0 0 0 0 0 0 0 0 0 0 0 0 0 12 276 658 1268 1582 1710 1646 1790 1384 1193 731 657 565 308 127 209 23 0 0 0 0 0 0 0 0 0 0 0
0 0 0 0 0 0 0 0 0 0 0 0 0 0 0 0 0 0 0 0 0 0 0 118 630 1348 1633 1472 1931 1668 1321 914 713 566 278 287 83 0 0 0 0 0 0 0 0 0 0 0 0
0 0 0 0 0 0 0 0 0 0 0 0 0 0 0 0 0 0 0 0 0 0 0 0 2 473 1380 1629 1967 1772 1309 843 811 728 604 143 0 0 0 0 0 0 0 0 0 0 0 0 0
0 0 0 0 0 0 0 0 0 0 0 0 0 0 0 0 0 0 0 0 0 0 0 0 0 1 471 1589 1840 1525 1135 976 701 524 9 0 0 0 0 0 0 0 0 0 0 0 0 0 0
0 0 0 0 0 0 0 0 0 0 0 0 0 0 0 0 0 0 0 0 0 0 0 0 0 77 253 1051 1827 1395 995 625 211 0 0 0 0 0 0 0 0 0 0 0 0 0 0 0 0
0 0 0 0 0 0 0 0 0 0 0 0 0 0 0 0 0 0 0 0 0 0 0 0 1 120 546 1488 1541 979 503 33 0 0 0 0 0 0 0 0 0 0 0 0 0 0 0 0 0
0 0 0 0 0 0 0 0 0 0 0 0 0 0 0 0 0 0 0 0 0 0 0 0 38 347 909 1296 861 187 0 0 0 0 0 0 0 0 0 0 0 0 0 0 0 0 0 0 0
0 0 0 0 0 0 0 0 0 0 0 0 0 0 0 0 0 0 0 0 0 0 0 1 130 525 961 1110 668 91 0 0 0 0 0 0 0 0 0 0 0 0 0 0 0 0 0 0 0
0 0 0 1 7 0 0 1 0 0 0 0 0 0 0 0 0 0 0 0 0 0 0 19 160 565 849 779 864 118 0 0 0 0 0 0 0 0 0 0 0 0 0 0 0 0 0 0 0
0 1 2 2 2 5 0 0 0 0 0 0 0 0 0 0 0 0 0 0 0 0 2 40 276 584 770 829 294 0 15 0 0 0 0 0 0 0 0 0 0 0 0 0 0 0 0 0 0
4 1 5 14 20 0 0 0 0 0 0 0 0 0 0 0 0 0 0 0 0 0 0 68 357 528 585 435 4 16 3 0 0 0 0 0 0 0 0 0 0 0 0 0 0 0 0 0 0
2 5 1 0 0 0 0 0 0 0 0 0 0 0 0 0 0 0 0 0 0 0 0 1 283 432 264 28 26 40 0 0 0 0 0 0 0 0 0 0 0 0 0 0 0 0 0 0 0
6 8 1 12 3 8 0 0 0 0 0 0 0 0 0 7 0 0 0 0 0 0 0 2 205 480 27 1 0 0 0 0 0 0 0 0 0 0 0 0 0 0 0 0 0 0 0 0 0
1 2 6 20 6 0 0 0 0 0 0 3 0 4 7 36 0 0 0 0 0 0 0 0 104 90 3 0 0 0 0 0 0 0 0 0 0 0 0 0 0 0 0 0 0 0 0 0 0
3 12 19 6 16 16 10 0 0 0 0 18 11 57 172 103 97 49 0 0 0 0 0 4 85 2 2 0 0 0 0 0 0 0 0 0 0 0 0 0 0 0 0 0 0 0 0 0 0
1 1 1 25 1 3 23 3 0 0 12 21 35 206 73 35 60 107 6 5 0 0 2 7 29 5 0 0 0 0 0 0 0 0 0 0 0 0 0 0 0 0 0 0 0 0 0 0 0
CIN
-121 0 0 0 0 0 0 0 0 0 0 0 0 0 0 0 -3 -16 -217 -219 -202 -146 -121 -131 -77 -97 -137 -196 -209 -16 0 0 0 -2 -4 0 -2 -1 -5 -9 0 0 0 0 0 0 0 0 0
0 0 0 0 0 0 0 0 0 0 0 0 0 0 0 0 0 -100 -166 -239 -183 -133 -121 -131 -56 -69 -114 -164 -207 -237 0 0 -1 -2 0 0 0 0 0 0 0 0 0 0 0 0 0 0 0
0 0 0 0 0 0 0 0 0 0 0 0 0 0 0 -3 -39 -63 -149 -223 -163 -124 -94 -81 -44 -56 -89 -138 -197 -219 -39 0 0 0 0 0 -2 0 0 0 0 0 0 0 0 0 0 0 0
0 0 0 0 0 0 0 0 0 0 0 0 0 0 0 0 -58 -96 -178 -194 -134 -111 -67 -102 -43 -48 -60 -113 -175 -223 -295 0 0 0 -6 -4 -2 -1 0 0 0 0 0 0 0 0 0 0 0
0 0 0 0 0 0 0 0 0 0 0 0 0 0 0 -39 -115 -129 -158 -187 -142 -123 -47 -66 -35 -31 -37 -89 -142 -186 -299 -348 -228 0 0 -1 -1 -3 -1 0 -5 -1 0 0 0 0 0 0 0
0 0 0 0 0 0 0 0 0 0 0 0 0 0 0 -35 -87 -110 -125 -136 -142 -132 -76 -69 -51 -29 -21 -50 -88 -140 -252 -318 -343 -160 0 -129 -7 -76 -79 -4 -5 0 0 0 0 0 -88 -151 -98
0 0 0 0 0 0 0 0 0 0 0 0 0 0 -3 0 -81 -89 -97 -103 -133 -132 -98 -45 -44 -40 -38 -39 -53 -77 -152 -223 -276 -277 0 -146 -96 -56 -41 -75 -39 0 0 0 -145 -77 -68 -103 -166
0 0 0 0 0 0 0 0 0 0 0 0 0 0 0 -40 -88 -78 -90 -102 -114 -115 -92 -68 -48 -34 -57 -59 -58 -80 -95 -122 -186 -179 -127 -160 -213 -91 -28 -11 -68 -142 -169 -122 -94 0 0 0 0
0 0 0 0 0 0 0 0 0 0 0 0 0 0 0 0 -90 -71 -82 -82 -90 -102 -77 -55 -45 -78 -55 -75 -82 -85 -116 -168 -166 -189 -274 0 0 0 0 0 -217 -152 -169 -135 0 0 0 0 0
0 0 0 0 0 0 0 0 0 0 0 0 0 0 0 0 -122 -71 -66 -64 -72 -68 -61 -44 -35 -44 -31 -61 -85 -133 -197 -265 -234 -313 -323 -229 0 0 0 0 -119 0 -92 0 0 0 0 0 0
0 0 0 0 0 0 0 0 0 0 0 0 0 0 0 0 -2 -83 -63 -54 -41 -40 -33 -31 -9 -8 -30 -74 -72 -129 -146 -135 -148 -180 -185 0 0 0 0 0 0 0 0 0 0 0 0 0 0
0 0 0 0 0 0 0 0 0 0 0 0 0 0 0 0 0 0 -68 -53 -34 -21 -10 -10 -4 -1 -1 -10 -56 -101 -122 -99 -94 -136 -150 0 0 -20 0 0 -54 -24 0 0 0 0 0 0 0
0 0 0 0 0 0 0 0 0 0 0 0 0 0 0 0 0 0 0 -40 -48 -44 -19 -11 -5 -21 -1 0 -15 -63 -83 -110 -82 -95 -118 -177 0 -174 -64 -78 0 0 0 0 0 0 0 0 0
0 0 0 0 0 0 0 0 0 0 0 0 0 0 0 0 0 0 0 0 -39 -43 -31 -19 -18 -10 -25 -5 -3 -31 -27 -80 -56 -70 -95 -202 -173 -137 0 0 0 0 0 0 0 0 0 0 0
0 0 0 0 0 0 0 0 0 0 0 0 0 0 0 0 0 0 0 0 0 -39 -38 -25 -24 -22 -28 -36 -3 -13 -15 -30 -47 -63 -85 -140 -106 -49 0 0 0 0 0 0 0 0 0 0 0
0 0 0 0 0 0 0 0 0 0 0 0 0 0 0 0 0 0 0 0 0 0 0 -60 -29 -21 -19 -61 -9 -8 -1 -7 -43 -39 -95 -95 -180 0 0 0 0 0 0 0 0 0 0 0 0
0 0 0 0 0 0 0 0 0 0 0 0 0 0 0 0 0 0 0 0 0 0 0 0 -20 -54 -19 -50 -5 -2 -3 -36 -22 -21 -34 -129 0 0 0 0 0 0 0 0 0 0 0 0 0
0 0 0 0 0 0 0 0 0 0 0 0 0 0 0 0 0 0 0 0 0 0 0 0 0 -31 -67 -13 -2 -14 -12 -21 -47 -52 -58 0 0 0 0 0 0 0 0 0 0 0 0 0 0
0 0 0 0 0 0 0 0 0 0 0 0 0 0 0 0 0 0 0 0 0 0 0 0 0 -172 -94 -30 -5 -38 -31 -57 -148 0 0 0 0 0 0 0 0 0 0 0 0 0 0 0 0
0 0 0 0 0 0 0 0 0 0 0 0 0 0 0 0 0 0 0 0 0 0 0 0 -118 -134 -71 -22 -44 -68 -104 -222 0 0 0 0 0 0 0 0 0 0 0 0 0 0 0 0 0
0 0 0 0 0 0 0 0 0 0 0 0 0 0 0 0 0 0 0 0 0 0 0 0 -207 -61 -55 -58 -80 -228 0 0 0 0 0 0 0 0 0 0 0 0 0 0 0 0 0 0 0
0 0 0 0 0 0 0 0 0 0 0 0 0 0 0 0 0 0 0 0 0 0 0 -252 -134 -45 -45 -49 -107 -353 0 0 0 0 0 0 0 0 0 0 0 0 0 0 0 0 0 0 0
0 0 0 0 0 0 0 0 0 0 0 0 0 0 0 0 0 0 0 0 0 0 0 -184 -92 -60 -53 -78 -62 -271 0 0 0 0 0 0 0 0 0 0 0 0 0 0 0 0 0 0 0
0 0 0 -1 0 0 0 0 0 0 0 0 0 0 0 0 0 0 0 0 0 0 -11 -152 -68 -57 -47 -62 -138 0 -359 0 0 0 0 0 0 0 0 0 0 0 0 0 0 0 0 0 0
0 0 0 0 0 0 0 0 0 0 0 0 0 0 0 0 0 0 0 0 0 0 0 -143 -69 -42 -55 -94 -260 -189 -43 0 0 0 0 0 0 0 0 0 0 0 0 0 0 0 0 0 0
0 0 0 0 0 0 0 0 0 0 0 0 0 0 0 0 0 0 0 0 0 0 -1 -29 -64 -40 -107 -272 -267 -73 0 0 0 0 0 0 0 0 0 0 0 0 0 0 0 0 0 0 0
0 0 0 0 0 0 0 0 0 0 0 0 0 0 0 -45 0 0 0 0 0 0 0 -186 -58 -32 -195 0 0 0 0 0 0 0 0 0 0 0 0 0 0 0 0 0 0 0 0 0 0
0 -2 0 -1 0 0 0 0 0 -1 0 -1 0 -2 0 -14 0 0 0 0 0 0 0 0 -56 -92 0 0 0 0 0 0 0 0 0 0 0 0 0 0 0 0 0 0 0 0 0 0 0
0 0 0 0 0 0 0 0 0 0 -2 -13 -11 -6 -3 -3 -27 -34 0 -2 0 0 0 0 -48 -1 0 0 0 0 0 0 0 0 0 0 0 0 0 0 0 0 0 0 0 0 0 0 0
0 0 0 0 0 0 0 0 0 0 -1 -2 -5 -9 -28 -36 -36 -46 -89 -69 0 0 0 0 -77 0 0 0 0 0 0 0 0 0 0 0 0 0 0 0 0 0 0 0 0 0 0 0 0
Wind_Speed
14 9 6 7 7 7 12 8 10 5 6 5 3 7 9 12 8 2 6 6 13 16 18 17 17 16 15 13 11 10 8 7 9 11 10 10 9 8 8 8 8 8 9 9 9 9 9 8 9
10 9 7 7 8 12 11 11 7 8 2 5 9 10 9 9 6 9 10 6 13 14 17 17 16 15 14 13 11 10 9 9 9 10 9 9 8 8 7 7 7 8 8 9 9 9 9 9 9
12 7 7 6 13 15 12 4 7 4 5 4 4 4 5 2 6 4 9 12 14 13 15 18 18 17 15 13 11 10 10 9 8 7 6 5 5 5 7 8 7 8 8 8 8 7 7 7 7
6 7 6 11 17 15 16 4 5 5 5 4 2 7 5 6 2 5 10 11 14 13 13 20 17 17 15 14 11 9 10 10 9 7 6 5 1 2 6 6 8 8 7 6 6 5 5 5 5
8 8 12 15 20 21 10 8 4 9 5 7 1 9 2 7 6 9 12 11 12 12 15 15 18 16 14 14 12 10 10 10 9 6 5 6 7 4 7 6 9 7 6 4 5 5 5 5 4
8 8 13 16 20 18 16 9 11 12 11 9 7 12 3 10 7 8 11 11 12 13 12 15 15 16 15 13 13 11 10 10 9 6 5 5 6 8 10 10 9 7 5 5 5 5 4 4 6
13 11 16 20 18 18 15 13 12 13 14 13 8 9 6 9 8 7 10 11 11 12 11 16 14 13 15 13 11 10 10 9 8 7 5 6 7 8 12 10 8 6 5 5 6 7 8 7 7
12 13 20 19 18 21 13 8 11 14 14 1 2 9 7 9 7 7 8 9 10 11 12 13 15 15 13 12 11 10 9 8 8 7 9 7 7 7 9 9 7 6 6 6 8 7 7 7 6
10 13 15 21 21 14 13 9 12 11 13 8 10 14 9 4 5 6 7 8 9 9 11 10 12 13 13 13 11 10 9 9 9 9 8 7 7 7 8 9 8 7 6 7 7 6 4 2 5
12 13 20 16 16 17 13 10 12 8 15 16 11 10 3 3 6 8 8 9 10 12 12 12 12 13 13 10 13 11 10 8 9 9 9 7 4 4 4 7 7 8 8 7 5 3 3 5 5
12 18 15 14 9 10 15 14 13 13 15 14 16 14 9 4 7 8 9 10 12 12 11 12 12 12 12 7 8 7 7 7 8 9 7 4 5 5 5 6 6 6 7 4 6 3 4 5 4
16 14 18 17 7 10 15 15 17 18 18 17 12 14 6 9 11 9 9 10 9 11 12 13 13 10 13 9 8 9 8 7 6 7 8 5 4 4 5 4 3 4 2 2 2 3 3 4 5
13 16 13 11 13 15 16 19 19 18 17 16 18 12 14 16 14 12 8 9 9 11 12 13 13 12 11 12 9 8 9 8 8 8 9 7 6 6 5 4 3 3 3 3 3 3 4 5 6
2 10 14 13 15 16 18 21 19 17 20 22 22 21 20 20 18 15 13 11 11 11 12 13 14 15 13 11 11 9 9 10 9 5 8 9 7 4 6 4 4 4 4 3 3 4 4 5 5
9 15 14 18 18 15 11 19 23 25 23 23 23 21 22 23 21 20 17 14 13 12 13 14 14 15 15 10 9 8 7 9 7 6 9 10 5 7 7 5 4 4 4 3 3 3 4 4 5
6 11 10 8 4 11 12 14 7 5 13 18 22 20 21 22 21 21 21 18 14 12 13 13 12 14 14 11 10 8 8 8 5 7 6 8 9 10 8 6 5 5 4 3 3 3 3 4 5
11 9 13 9 6 6 14 11 7 3 13 14 13 15 15 19 22 21 21 21 19 14 13 12 12 15 16 15 12 9 7 5 7 8 8 10 10 10 8 5 6 6 4 4 3 3 4 4 5
8 13 10 10 4 8 14 19 18 17 17 18 17 18 17 16 17 16 20 21 20 16 14 14 13 14 15 13 10 5 4 5 5 6 7 11 8 9 8 7 7 6 4 4 3 4 4 4 5
6 9 11 10 7 15 18 20 19 18 20 21 20 19 20 21 20 16 15 17 19 21 15 16 14 15 12 10 11 8 8 6 8 8 10 10 9 6 7 7 7 6 5 5 3 3 4 5 6
12 14 14 14 12 12 17 28 23 25 26 22 22 23 23 22 22 21 20 19 19 17 17 16 16 16 14 10 10 7 7 6 7 8 9 8 8 5 6 8 7 7 5 5 5 4 2 3 5
13 14 13 14 14 16 20 26 22 12 14 17 18 21 23 25 23 21 22 22 18 20 17 16 16 16 15 16 11 9 9 7 6 9 9 7 7 5 6 9 8 7 5 5 4 4 5 3 3
12 9 10 11 8 7 3 12 9 11 12 10 11 14 16 17 19 19 21 21 20 19 14 15 14 16 16 18 16 19 13 13 9 10 8 7 8 6 7 9 9 8 5 6 4 3 3 2 2
6 3 4 6 10 14 15 9 10 11 17 15 16 13 12 12 15 17 18 20 19 17 15 12 15 16 17 18 18 14 14 10 10 10 14 9 7 6 7 9 9 8 5 5 5 4 3 2 2
3 3 6 6 4 9 11 16 19 14 11 14 13 12 11 9 13 11 14 16 16 16 12 13 16 17 16 17 17 17 16 16 13 13 10 8 7 6 9 9 8 7 7 6 5 4 2 1 1
9 2 2 5 6 10 5 9 20 21 21 16 12 14 15 10 12 14 14 14 14 14 14 13 17 17 18 18 17 18 16 16 18 17 12 13 9 7 9 9 9 7 6 5 4 3 2 1 2
13 11 5 7 8 14 16 12 14 15 15 18 13 16 11 8 8 12 16 14 14 13 13 17 19 18 18 19 18 14 16 10 11 12 12 10 8 9 11 9 8 8 7 5 4 2 1 1 3
7 10 14 13 16 13 13 20 23 26 26 25 18 19 14 9 7 11 14 16 13 14 16 18 19 18 17 17 11 14 14 15 14 15 11 8 10 9 10 10 9 8 6 4 3 1 2 3 3
12 1 3 5 7 11 14 21 14 16 16 17 12 17 17 8 12 12 13 14 11 13 15 18 19 18 17 16 12 13 13 13 13 14 12 11 11 12 11 10 8 7 5 4 2 2 2 4 4
9 12 7 8 8 8 14 13 12 14 10 10 12 11 6 7 9 12 13 12 10 11 15 16 17 17 16 16 15 15 14 13 13 12 12 12 13 12 11 10 8 6 5 3 2 3 4 5 6
13 14 16 9 10 9 14 23 14 14 11 10 10 9 10 10 7 11 12 10 8 11 14 16 15 16 15 15 16 14 15 14 14 13 13 13 13 12 11 9 7 5 3 1 2 4 5 6 7
Wind_Direction
282 282 293 266 254 227 262 244 252 240 234 221 318 272 327 333 344 346 129 101 132 141 141 154 149 150 150 144 135 126 119 123 124 109 109 114 115 117 116 96 80 69 57 54 54 46 44 42 43
297 287 248 272 254 254 248 217 205 240 319 310 253 243 251 262 45 97 138 129 145 144 144 151 152 150 150 145 142 135 125 127 114 121 117 123 124 126 117 117 98 77 69 65 61 52 43 39 36
263 267 269 244 238 249 262 133 257 133 252 258 259 226 295 41 92 67 105 148 150 152 151 136 156 152 150 148 147 144 133 131 134 125 115 100 118 123 142 119 110 94 81 72 65 54 43 38 29
242 222 240 248 246 239 261 297 286 232 210 218 320 256 154 40 85 80 137 151 156 155 153 137 150 147 148 148 151 151 146 142 143 134 86 80 174 152 156 140 115 103 90 78 65 44 31 27 18
234 254 239 230 244 254 246 261 210 245 259 258 256 255 199 109 112 132 146 156 157 155 127 145 142 150 151 151 155 157 154 156 162 146 119 75 70 37 194 123 125 112 96 77 52 29 23 29 27
220 239 238 237 242 242 248 214 240 242 254 248 255 251 240 107 158 133 151 155 159 158 150 141 157 152 149 156 162 162 163 165 174 168 143 94 54 18 159 136 127 119 81 54 36 29 30 33 40
240 220 243 249 254 250 235 213 238 243 248 242 225 276 150 139 89 146 157 150 157 157 161 147 167 155 153 163 162 164 171 168 175 172 159 113 79 62 119 126 124 113 78 55 30 38 56 55 53
246 252 248 249 252 251 251 234 246 253 248 280 267 230 258 93 122 142 149 150 161 167 168 163 169 170 168 163 157 163 169 162 164 150 126 127 124 112 117 124 107 96 79 62 60 60 69 76 73
248 250 237 240 246 251 262 246 232 247 261 216 219 255 70 93 136 156 164 167 168 175 177 182 174 167 173 164 160 165 168 165 157 146 153 180 210 172 174 88 96 94 83 85 83 75 77 150 149
224 228 239 252 262 253 265 216 222 220 233 238 221 226 185 166 184 193 195 186 189 185 187 187 188 178 168 158 159 176 172 183 188 186 180 211 167 139 109 109 123 114 110 109 113 132 230 262 351
220 245 242 243 290 298 281 256 246 261 253 227 225 221 181 227 206 221 219 216 190 194 192 194 194 181 166 176 165 179 169 192 190 190 185 173 165 164 187 152 165 154 175 176 199 179 29 2 357
239 251 258 273 292 251 255 263 257 249 253 265 248 260 271 244 239 220 223 228 213 194 194 189 192 202 184 177 180 191 180 184 205 182 189 167 172 184 170 182 100 102 105 111 21 16 13 339 343
237 256 253 254 266 260 266 261 262 260 258 259 269 260 256 252 253 252 230 231 220 205 200 192 190 187 205 191 193 193 198 171 201 178 187 185 177 182 179 112 122 126 85 41 31 6 351 339 341
309 270 269 260 259 252 256 260 255 248 250 255 257 258 252 250 253 250 241 223 223 211 202 196 193 185 198 205 195 190 213 174 197 150 192 188 179 154 120 132 124 104 79 59 28 9 352 336 338
263 265 264 248 241 237 252 262 250 250 252 255 249 248 247 248 250 251 244 232 225 219 204 201 198 193 192 196 202 201 208 188 161 177 183 188 139 129 139 132 130 100 90 75 48 3 342 344 340
236 243 255 125 226 235 215 262 275 248 234 250 247 247 250 248 245 244 245 239 233 235 213 211 193 199 190 194 200 206 207 189 154 173 171 164 152 150 146 142 124 118 99 80 60 19 355 356 347
216 258 219 255 219 256 211 270 281 251 268 257 261 255 247 247 246 245 244 243 238 221 234 199 208 203 190 191 205 209 205 166 186 175 162 145 151 143 129 129 129 123 103 83 62 60 22 7 352
237 219 253 258 155 234 268 269 271 273 269 261 263 263 265 256 247 255 245 244 239 234 229 225 192 209 205 190 180 172 174 166 148 149 148 152 148 148 145 138 133 122 114 108 95 71 52 20 351
299 300 277 275 292 281 278 275 276 274 263 259 258 256 255 254 258 245 243 251 238 235 226 223 207 198 197 192 170 168 166 154 159 152 139 146 147 146 139 137 131 120 111 98 75 83 39 31 354
253 261 267 278 282 297 292 284 286 273 263 260 257 255 255 254 248 244 238 230 242 233 228 223 212 198 194 170 172 158 148 156 156 143 127 133 131 129 134 139 129 123 119 104 82 47 69 66 21
243 256 271 279 309 300 280 283 260 262 242 241 248 248 250 254 254 244 238 233 224 232 223 217 207 194 187 169 153 145 137 116 146 142 136 135 128 132 130 135 130 122 117 108 83 69 39 54 82
262 270 271 282 284 274 82 293 290 283 262 253 265 252 247 246 246 249 254 241 230 224 210 227 209 189 188 173 172 169 169 164 164 155 133 130 129 125 136 135 129 126 124 119 114 84 63 6 50
241 37 276 286 276 297 256 247 257 280 277 255 254 236 254 247 253 259 239 240 246 232 203 209 207 196 185 180 182 172 178 160 143 133 130 129 124 121 133 134 129 129 123 118 117 106 69 34 1
72 243 268 261 280 256 245 222 279 269 292 313 280 280 262 262 291 284 262 247 232 234 202 188 199 197 183 185 177 181 176 147 145 144 136 137 132 142 143 139 132 132 127 128 118 107 88 34 346
222 190 229 210 200 246 311 248 243 278 293 274 297 282 292 307 294 281 263 244 236 226 205 185 199 190 182 181 185 191 160 156 156 149 149 146 148 152 152 144 144 138 124 127 131 133 146 231 302
208 202 228 270 261 296 311 251 246 266 278 304 280 270 269 281 316 313 294 254 229 219 187 194 199 186 175 182 184 171 149 163 154 151 149 148 151 153 153 149 139 136 136 139 147 149 209 265 268
150 212 249 292 274 267 253 266 271 267 269 273 257 273 266 283 312 311 315 279 238 209 199 195 197 180 175 173 158 144 150 151 148 146 147 142 136 138 147 141 141 139 139 146 152 208 244 248 271
215 46 169 206 273 273 263 275 269 272 294 270 251 250 248 265 309 317 323 286 235 217 195 196 192 174 170 155 146 148 148 145 140 136 142 132 133 142 142 141 140 141 142 149 182 233 238 273 276
190 233 217 287 246 274 289 264 301 303 304 324 296 236 232 270 300 310 324 293 236 209 187 187 182 159 160 145 143 140 135 143 132 134 132 130 141 142 141 141 143 146 152 156 238 273 281 267 282
260 223 226 230 227 227 262 267 275 265 241 246 268 263 286 301 308 306 319 290 233 194 174 178 161 153 146 138 143 129 133 135 130 135 130 136 138 137 135 138 138 136 129 117 293 291 285 285 290